Dean International
Flight School

Career Spotlight

Mika

Mika

Congratulations to Mika from Khazakstan. She recently sent us this photo of her flying an Airbus airliner.

More...
Mika's Success Story
close

Congratulations to Mika from Khazakstan. She recently sent us this photo of her flying an Airbus airliner.

Mario

Mario

My dreams could not have been realized if I wouldn't have been part of the Dean International family.

More...
Mario's Success Story
close

"My dreams could not have been realized if I wouldn't have been part of the Dean International family. Thank you Robert, thanks to all my co-workers, and thanks to all of my students!"

Fernando

Fernando

I am now working as a First Officer at TACA and am enjoying every moment of it.

More...
Fernando's Success Story
close

"Will never forget my time of flight training at Dean International. I am now working as a First Officer at TACA and am enjoying every moment of it."

Alvaro

Alvaro

Because of the flight time I was able to built while instructing, I got the experience needed to apply to an airline in Colombia.

More...
Alvaro's Success Story
close

Dean alumnus Alvaro Londoño currently flies with Tampa Cargo. He says of his experience at Dean: "I want to take this opportunity to thank you for giving me the chance to build my experience and expand my knowledge in Dean International. Because of the flight time I was able to built flight instructing, I got the experience needed to apply to an airline in Colombia."

Ralph

Ralph

Every Aruban student of Dean International has made it into Tiara Air Aruba, that is very nice.

More...
Ralph's Success Story
close

"Next to me is my Co-Pilot, Elison. This picture was taken on our first flight together, which was almost exactly 5 years after I finished at Dean International. [...] Every Aruban student of Dean International has made it into Tiara Air Aruba. [...] The future looks bright here in Aruba."

Rohaan

Rohaan

The [..] staff will all work diligently to help you finish your certificates as safely and efficiently as possible.

More...
Rohaan's Success Story
close

After receiving very hard times from other flight schools [...], I came to Dean International where Robert Dean personally sat down with me and gave me a financial and chronological look into how much remained to finish my private pilot certificate. Through his hard efforts as an instructor and mentor, I was able to finish my private pilot certificate within one week.

Welcome to Dean International

In over two decades, Dean International has educated over 7,000 pilots from all over the world, including over 1,000 students from India alone. By offering a great training experience, a friendly service staff, an ample variety of aircraft, and by improving constantly, we have become one of the largest, most prestigious FAA 141-approved flight schools in North America. Located in Miami, Florida, USA, our flight school offers an ideal location for year-round, "learn to fly" weather, flight training. Dean International is not only well-equipped to provide services to professional trainees but also caters to General Aviation renters. Visit or contact our headquarters at Kendall-Tamiami Executive Airport located in Miami, FL today to learn more about us, or simply read more about our programs if you are an international student interested in joining our school.

Local Airport Information
TAF FOR KTMB (Issued: Wed, July 30th 2014 10:33 PM UTC)
TAF
      AMD KTMB 302131Z 3022/3118 21006KT 1SM TSRA BR BKN015CB
      FM302300 22004KT P6SM VCTS SCT025CB BKN100 BKN250
      FM310200 VRB03KT P6SM SKC
      FM311600 20005KT P6SM VCSH SCT030 SCT050
     
METAR FOR KTMB (Issued: Thu, July 31st 2014 12:53 AM UTC):
KTMB 310053Z 00000KT 10SM CLR 27/24 A2999 RMK AO2 LTG DSNT NW SLP155 T02670244

This weather information is provided by the National Weather Service.
It is automatically refreshed every three minutes.
TAF FOR KHST (Issued: Thu, July 31st 2014 12:07 AM UTC)
TAF KHST 3100/0106 22009KT 6000 -SHRA BKN040 QNH2997INS
      BECMG 3105/3106 20006KT 9999 NSW SCT040 QNH2995INS
      BECMG 3114/3115 19009KT 9999 SCT050 QNH2992INS
      TEMPO 3118/3122 23012G18KT 6000 -TSRA BKN030CB
      BECMG 3121/3122 20006KT 9999 FEW030 QNH2997INS TX33/3121Z TN23/3111Z
     
METAR FOR KHST (Issued: Thu, July 31st 2014 12:58 AM UTC):
KHST 310058Z AUTO 34003KT 10SM CLR 25/24 A2999 RMK AO2 SLP159 T02530237

This weather information is provided by the National Weather Service.
It is automatically refreshed every three minutes.
TAF FOR KOPF (Issued: Wed, July 30th 2014 8:03 PM UTC)
TAF
      AMD KOPF 302001Z 3020/3118 20008KT P6SM VCTS SCT030CB BKN060 BKN250
      TEMPO 3020/3023 3SM TSRA BKN025CB
      FM302300 20007KT P6SM SCT030 BKN100 BKN250
      FM310500 00000KT P6SM SKC
      FM311300 20003KT P6SM SCT030 SCT050
      FM311600 19005KT P6SM VCSH SCT030 SCT050
     
METAR FOR KOPF (Issued: Thu, July 31st 2014 12:53 AM UTC):
KOPF 310053Z AUTO 19004KT 10SM FEW055 25/25 A2998 RMK AO2 LTG DSNT W RAE38 SLP154 P0001 T02500250

This weather information is provided by the National Weather Service.
It is automatically refreshed every three minutes.
TAF FOR KMIA (Issued: Wed, July 30th 2014 6:30 PM UTC)
TAF KMIA 301724Z 3018/3118 17007KT P6SM VCSH SCT030 BKN060
      FM301900 16008KT P6SM VCTS SCT030CB BKN060 BKN250
      FM302300 19006KT P6SM SCT030 BKN100 BKN250
      FM310500 00000KT P6SM SKC
      FM311300 21003KT P6SM SCT030 SCT050
      FM311600 19005KT P6SM VCSH SCT030 SCT050
     
METAR FOR KMIA (Issued: Thu, July 31st 2014 12:53 AM UTC):
KMIA 310053Z 20004KT 10SM SCT070 BKN090 BKN250 26/24 A2999 RMK AO2 RAE43 SLP154 P0001 T02610239

This weather information is provided by the National Weather Service.
It is automatically refreshed every three minutes.
Design by Ariel Llizo
© Dean International Inc. 2012